Flag for Romania Weather past 2 weeks in Cluj-Napoca, Romania

Now
72 °F

Clear.


Feels Like: 72 °F
Forecast: 63 / 93 °F
Wind: 2 mph from North

Location: Cluj Airport-Napoca

Current Time: Aug 31, 2015 at 11:16:23 PM

Latest Report: Aug 31, 2015 at 11:00 PM


Visibility: 10 mi

Pressure: 30.04 "Hg

Humidity: 78%

Dew point: 64 °F

Location of Cluj-NapocaLocation

Historic Weather in Cluj-Napoca — Graph

°F

Cluj-Napoca temperature yesterday

Maximum temperature yesterday: 93 °F (at 4:30 PM)
Minimum temperature yesterday: 61 °F (at 6:30 AM)
Average temperature yesterday: 78 °F

Past Weeks' High & Low Weather Summary

 TemperatureHumidityPressure
High93 °F (Aug 30, 4:30 PM)100% (Aug 17, 3:00 PM)30.27 "Hg (Aug 17, 3:00 PM)
Low52 °F (Aug 24, 5:30 AM)30% (Aug 30, 3:30 PM)29.80 "Hg (Aug 16, 10:00 PM)
Average69 °F75%30.09 "Hg
* Reported Aug 16 10:00 PM — Aug 31 10:00 PM, Cluj-Napoca, Weather by CustomWeather, © 2015

Note: Actual official high and low records may vary slightly from our data, if they occured in-between our weather recording intervals... More about our weather records

Advertising

Cluj-Napoca weather history for previous 24 hours

 ConditionsComfort  
Time TempWeatherWind HumidityBarometerVisibility
10:00 PM
Mon, Aug 31
75 °FClear.3 mph74%30.07 "Hg10 mi
9:30 PM77 °FClear.1 mph69%30.07 "Hg10 mi
9:00 PM77 °FSunny.No wind74%30.04 "Hg10 mi
8:30 PM81 °FSunny.No wind62%30.04 "Hg10 mi
8:00 PM84 °FSunny.No wind51%30.04 "Hg10 mi
7:30 PM88 °FPassing clouds.5 mph43%30.04 "HgN/A
7:00 PM88 °FPassing clouds.5 mph46%30.04 "HgN/A
6:30 PM91 °FPassing clouds.6 mph38%30.07 "HgN/A
6:00 PM91 °FPassing clouds.6 mph34%30.07 "HgN/A
5:30 PM93 °FPassing clouds.6 mph34%30.07 "HgN/A
5:00 PM93 °FPassing clouds.7 mph32%30.07 "HgN/A
4:30 PM93 °FPassing clouds.8 mph32%30.07 "HgN/A
4:00 PM91 °FPassing clouds.6 mph34%30.09 "HgN/A
3:30 PM91 °FPassing clouds.7 mph34%30.09 "HgN/A
3:00 PM91 °FSunny.8 mph36%30.12 "Hg10 mi
2:30 PM91 °FPassing clouds.6 mph34%30.12 "HgN/A
2:00 PM90 °FSunny.6 mph41%30.12 "Hg10 mi
1:30 PM90 °FPassing clouds.6 mph43%30.12 "HgN/A
1:00 PM88 °FPassing clouds.7 mph46%30.15 "HgN/A
12:30 PM86 °FPassing clouds.6 mph52%30.15 "HgN/A
12:00 PM84 °FPassing clouds.6 mph55%30.15 "HgN/A
11:30 AM82 °FPassing clouds.5 mph58%30.15 "HgN/A
11:00 AM79 °FSunny.1 mph65%30.18 "Hg10 mi
10:30 AM77 °FSunny.2 mph65%30.18 "Hg10 mi
10:00 AM75 °FSunny.No wind69%30.18 "Hg10 mi
9:30 AM73 °FSunny.No wind74%30.18 "Hg10 mi
9:00 AM70 °FSunny.1 mph83%30.18 "Hg10 mi
8:30 AM68 °FSunny.No wind88%30.18 "Hg10 mi
8:00 AM64 °FSunny.No wind94%30.18 "Hg10 mi
7:30 AM63 °FClear.1 mph100%30.18 "Hg10 mi
7:00 AM61 °FClear.3 mph100%30.18 "Hg10 mi
6:30 AM61 °FClear.5 mph100%30.18 "Hg10 mi
6:00 AM63 °FClear.3 mph100%30.18 "Hg10 mi
5:30 AM63 °FMild.No wind100%30.18 "Hg6 mi
5:00 AM66 °FClear.No wind88%30.18 "Hg10 mi
4:00 AM66 °FClear.No wind94%30.18 "Hg10 mi
3:00 AM68 °FClear.No wind88%30.18 "Hg10 mi
2:00 AM70 °FClear.5 mph83%30.18 "Hg10 mi
11:30 PM
Sun, Aug 30
73 °FClear.5 mph78%30.18 "Hg10 mi
11:00 PM73 °FClear.3 mph78%30.18 "Hg10 mi
Weather by CustomWeather, © 2015

See weather overviewHow to use our weather pages